| time (UTC) | temp F | wind direction | speed MPH | gust MPH | rain 1hr in | rain 24hr in | rain mn in | humidity % | barometer mb |
| 20260906072627 | 83 | 38 | 0.0 | 0.0 | 0.00 | 0.00 | 0.00 | 80 | 1019.3 |
| 20260906072111 | 83 | 38 | 0.0 | 0.0 | 0.00 | 0.00 | 0.00 | 80 | 1019.3 |
| 20260906071553 | 83 | 38 | 0.0 | 0.0 | 0.00 | 0.00 | 0.00 | 80 | 1019.3 |
| 20260906071042 | 84 | 153 | 0.0 | 0.0 | 0.00 | 0.00 | 0.00 | 80 | 1019.2 |
| 20260906070544 | 84 | 153 | 0.0 | 1.0 | 0.00 | 0.00 | 0.00 | 80 | 1019.2 |
| 20260906070043 | 84 | 154 | 0.0 | 0.0 | 0.00 | 0.00 | 0.00 | 79 | 1019.2 |
| 20260906064937 | 84 | 155 | 0.0 | 2.0 | 0.00 | 0.00 | 0.00 | 79 | 1019.2 |
| 20260906064447 | 84 | 165 | 0.0 | 2.0 | 0.00 | 0.00 | 0.00 | 80 | 1019.2 |
| 20260906063930 | 84 | 165 | 0.0 | 2.0 | 0.00 | 0.00 | 0.00 | 80 | 1019.1 |
| 20260906063419 | 84 | 167 | 0.0 | 2.0 | 0.00 | 0.00 | 0.00 | 80 | 1019.1 |
| 20260906062923 | 84 | 167 | 0.0 | 2.0 | 0.00 | 0.00 | 0.00 | 80 | 1019.1 |
| 20260906062414 | 84 | 167 | 0.0 | 2.0 | 0.00 | 0.00 | 0.00 | 80 | 1019.1 |
| 20260906060706 | 82 | 213 | 0.0 | 2.0 | 0.00 | 0.00 | 0.00 | 83 | 1018.9 |
| 20260906060215 | 81 | 213 | 1.0 | 2.0 | 0.00 | 0.00 | 0.00 | 84 | 1018.9 |
| 20260906055043 | 80 | 198 | 0.0 | 3.0 | 0.00 | 0.00 | 0.00 | 85 | 1018.8 |
| 20260906054532 | 79 | 193 | 1.0 | 3.0 | 0.00 | 0.00 | 0.00 | 86 | 1018.7 |
| 20260906054015 | 79 | 211 | 1.0 | 3.0 | 0.00 | 0.00 | 0.00 | 86 | 1018.7 |
| 20260906053456 | 78 | 211 | 1.0 | 2.0 | 0.00 | 0.00 | 0.00 | 87 | 1018.7 |
| 20260906052946 | 78 | 217 | 1.0 | 3.0 | 0.00 | 0.00 | 0.00 | 87 | 1018.6 |
| 20260906052435 | 77 | 218 | 1.0 | 4.0 | 0.00 | 0.00 | 0.00 | 88 | 1018.5 |
| 20260906051334 | 76 | 207 | 2.0 | 4.0 | 0.00 | 0.00 | 0.00 | 88 | 1018.6 |
| 20260906050818 | 75 | 222 | 1.0 | 4.0 | 0.00 | 0.00 | 0.00 | 88 | 1018.6 |
| 20260906050315 | 75 | 220 | 1.0 | 4.0 | 0.00 | 0.00 | 0.00 | 88 | 1018.6 |
| 20260906045756 | 75 | 194 | 2.0 | 4.0 | 0.00 | 0.00 | 0.00 | 88 | 1018.6 |
| 20260906045241 | 75 | 186 | 2.0 | 4.0 | 0.00 | 0.00 | 0.00 | 88 | 1018.5 |
| 20260906044738 | 75 | 223 | 2.0 | 4.0 | 0.00 | 0.00 | 0.00 | 88 | 1018.6 |
| 20260906043622 | 75 | 207 | 1.0 | 3.0 | 0.00 | 0.00 | 0.00 | 88 | 1018.5 |
| 20260906042449 | 75 | 198 | 1.0 | 4.0 | 0.00 | 0.00 | 0.00 | 88 | 1018.4 |
| 20260906041956 | 75 | 194 | 2.0 | 4.0 | 0.00 | 0.00 | 0.00 | 88 | 1018.5 |
| 20260906041504 | 75 | 225 | 2.0 | 4.0 | 0.00 | 0.00 | 0.00 | 88 | 1018.3 |
| 20260906041013 | 75 | 208 | 2.0 | 4.0 | 0.00 | 0.00 | 0.00 | 88 | 1018.3 |
| 20260906040515 | 75 | 193 | 1.0 | 4.0 | 0.00 | 0.00 | 0.00 | 88 | 1018.3 |
| 20260906040019 | 75 | 200 | 1.0 | 4.0 | 0.00 | 0.00 | 0.00 | 88 | 1018.3 |
| 20260906035507 | 75 | 187 | 1.0 | 4.0 | 0.00 | 0.00 | 0.00 | 88 | 1018.2 |
| 20260906035015 | 75 | 194 | 1.0 | 4.0 | 0.00 | 0.00 | 0.00 | 88 | 1018.4 |
| 20260906034502 | 75 | 207 | 1.0 | 3.0 | 0.00 | 0.00 | 0.00 | 88 | 1018.4 |
| 20260906033945 | 75 | 225 | 1.0 | 3.0 | 0.00 | 0.00 | 0.00 | 88 | 1018.4 |
| 20260906033437 | 75 | 180 | 1.0 | 3.0 | 0.00 | 0.00 | 0.00 | 88 | 1018.4 |
| 20260906032920 | 75 | 213 | 1.0 | 3.0 | 0.00 | 0.00 | 0.00 | 88 | 1018.4 |
| 20260906032400 | 75 | 219 | 1.0 | 3.0 | 0.00 | 0.00 | 0.00 | 88 | 1018.4 |
| 20260906031905 | 75 | 220 | 1.0 | 3.0 | 0.00 | 0.00 | 0.00 | 88 | 1018.3 |
| 20260906031415 | 75 | 193 | 1.0 | 3.0 | 0.00 | 0.00 | 0.00 | 88 | 1018.3 |
| 20260906030924 | 75 | 179 | 1.0 | 3.0 | 0.00 | 0.00 | 0.00 | 88 | 1018.3 |
| 20260906030416 | 75 | 202 | 1.0 | 3.0 | 0.00 | 0.00 | 0.00 | 88 | 1018.3 |
| 20260906025919 | 75 | 199 | 1.0 | 3.0 | 0.00 | 0.00 | 0.00 | 89 | 1018.4 |
| 20260906025420 | 75 | 200 | 1.0 | 3.0 | 0.00 | 0.00 | 0.00 | 89 | 1018.4 |
| 20260906024300 | 75 | 209 | 1.0 | 3.0 | 0.00 | 0.00 | 0.00 | 89 | 1018.3 |
| 20260906023124 | 75 | 216 | 1.0 | 3.0 | 0.00 | 0.00 | 0.00 | 89 | 1018.3 |
| 20260906022606 | 75 | 219 | 1.0 | 3.0 | 0.00 | 0.00 | 0.00 | 89 | 1018.4 |
| 20260906022113 | 75 | 208 | 1.0 | 3.0 | 0.00 | 0.00 | 0.00 | 89 | 1018.5 |
| 20260906021602 | 75 | 191 | 1.0 | 2.0 | 0.00 | 0.00 | 0.00 | 89 | 1018.4 |
| 20260906020502 | 75 | 206 | 1.0 | 3.0 | 0.00 | 0.00 | 0.00 | 89 | 1018.5 |
| 20260906015958 | 75 | 196 | 1.0 | 3.0 | 0.00 | 0.00 | 0.00 | 89 | 1018.6 |
| 20260906015448 | 76 | 204 | 1.0 | 3.0 | 0.00 | 0.00 | 0.00 | 89 | 1018.6 |
| 20260906014349 | 76 | 217 | 1.0 | 3.0 | 0.00 | 0.00 | 0.00 | 89 | 1018.6 |
| 20260906013227 | 76 | 198 | 1.0 | 3.0 | 0.00 | 0.00 | 0.00 | 88 | 1018.6 |
| 20260906012720 | 76 | 209 | 1.0 | 3.0 | 0.00 | 0.00 | 0.00 | 88 | 1018.5 |
| 20260906012205 | 76 | 217 | 1.0 | 3.0 | 0.00 | 0.00 | 0.00 | 88 | 1018.6 |
| 20260906011650 | 76 | 202 | 1.0 | 3.0 | 0.00 | 0.00 | 0.00 | 88 | 1018.5 |
| 20260906011147 | 76 | 205 | 1.0 | 3.0 | 0.00 | 0.00 | 0.00 | 87 | 1018.6 |
| 20260906010641 | 76 | 211 | 1.0 | 3.0 | 0.00 | 0.00 | 0.00 | 87 | 1018.6 |
| 20260906010142 | 76 | 202 | 1.0 | 3.0 | 0.00 | 0.00 | 0.00 | 87 | 1018.7 |
| 20260906005627 | 76 | 211 | 1.0 | 3.0 | 0.00 | 0.00 | 0.00 | 87 | 1018.6 |
| 20260906004502 | 76 | 207 | 1.0 | 3.0 | 0.00 | 0.00 | 0.00 | 87 | 1018.7 |
| 20260906003311 | 76 | 225 | 1.0 | 4.0 | 0.00 | 0.00 | 0.00 | 86 | 1018.6 |
| 20260906002810 | 76 | 198 | 1.0 | 4.0 | 0.00 | 0.00 | 0.00 | 86 | 1018.6 |
| 20260906002306 | 76 | 198 | 1.0 | 4.0 | 0.00 | 0.00 | 0.00 | 86 | 1018.7 |
| 20260906001812 | 76 | 196 | 1.0 | 2.0 | 0.00 | 0.00 | 0.00 | 85 | 1018.6 |
| 20260906001307 | 76 | 200 | 1.0 | 3.0 | 0.00 | 0.00 | 0.00 | 85 | 1018.6 |
| 20260906000810 | 76 | 205 | 1.0 | 3.0 | 0.00 | 0.00 | 0.00 | 85 | 1018.6 |
| 20260906000306 | 76 | 190 | 1.0 | 3.0 | 0.00 | 0.00 | 0.00 | 85 | 1018.6 |
| 20260905235802 | 76 | 196 | 1.0 | 3.0 | 0.00 | 0.00 | 0.00 | 85 | 1018.5 |
| 20260905235252 | 77 | 222 | 1.0 | 3.0 | 0.00 | 0.00 | 0.00 | 85 | 1018.7 |
| 20260905234735 | 77 | 202 | 1.0 | 3.0 | 0.00 | 0.00 | 0.00 | 85 | 1018.7 |
| 20260905234227 | 77 | 191 | 1.0 | 3.0 | 0.00 | 0.00 | 0.00 | 84 | 1018.8 |
| 20260905233720 | 77 | 188 | 1.0 | 3.0 | 0.00 | 0.00 | 0.00 | 84 | 1018.8 |
| 20260905232545 | 77 | 215 | 2.0 | 3.0 | 0.00 | 0.00 | 0.00 | 84 | 1018.8 |
| 20260905232046 | 77 | 202 | 2.0 | 3.0 | 0.00 | 0.00 | 0.00 | 83 | 1018.8 |
| 20260905231542 | 77 | 209 | 1.0 | 3.0 | 0.00 | 0.00 | 0.00 | 83 | 1018.7 |
| 20260905231051 | 78 | 207 | 1.0 | 3.0 | 0.00 | 0.00 | 0.00 | 83 | 1018.7 |
| 20260905225937 | 78 | 191 | 1.0 | 3.0 | 0.00 | 0.00 | 0.00 | 82 | 1018.6 |
| 20260905225429 | 79 | 218 | 1.0 | 3.0 | 0.00 | 0.00 | 0.00 | 83 | 1018.6 |
| 20260905224254 | 78 | 227 | 1.0 | 3.0 | 0.00 | 0.00 | 0.00 | 83 | 1018.8 |
| 20260905223801 | 77 | 269 | 2.0 | 3.0 | 0.00 | 0.00 | 0.00 | 82 | 1018.9 |
| 20260905223310 | 76 | 206 | 2.0 | 4.0 | 0.00 | 0.00 | 0.00 | 82 | 1018.8 |
| 20260905222802 | 76 | 212 | 2.0 | 4.0 | 0.00 | 0.00 | 0.00 | 81 | 1018.8 |
| 20260905222255 | 77 | 222 | 2.0 | 4.0 | 0.00 | 0.00 | 0.00 | 81 | 1018.8 |
| 20260905221134 | 76 | 207 | 2.0 | 4.0 | 0.00 | 0.00 | 0.00 | 81 | 1018.7 |
| 20260905220641 | 76 | 211 | 1.0 | 4.0 | 0.00 | 0.00 | 0.00 | 81 | 1018.7 |
| 20260905220143 | 76 | 213 | 1.0 | 4.0 | 0.00 | 0.00 | 0.00 | 81 | 1018.7 |
| 20260905215016 | 77 | 211 | 1.0 | 3.0 | 0.00 | 0.00 | 0.00 | 81 | 1018.6 |
| 20260905214521 | 77 | 217 | 1.0 | 4.0 | 0.00 | 0.00 | 0.00 | 81 | 1018.6 |
| 20260905214026 | 77 | 211 | 1.0 | 4.0 | 0.00 | 0.00 | 0.00 | 81 | 1018.6 |
| 20260905213534 | 77 | 215 | 1.0 | 4.0 | 0.00 | 0.00 | 0.00 | 81 | 1018.6 |
| 20260905213020 | 77 | 223 | 1.0 | 4.0 | 0.00 | 0.00 | 0.00 | 80 | 1018.7 |
| 20260905212500 | 77 | 209 | 1.0 | 3.0 | 0.00 | 0.00 | 0.00 | 80 | 1018.6 |
| 20260905212010 | 77 | 205 | 1.0 | 3.0 | 0.00 | 0.00 | 0.00 | 80 | 1018.5 |
| 20260905211505 | 77 | 196 | 1.0 | 3.0 | 0.00 | 0.00 | 0.00 | 80 | 1018.6 |
| 20260905211000 | 77 | 219 | 1.0 | 3.0 | 0.00 | 0.00 | 0.00 | 80 | 1018.5 |
| 20260905210450 | 77 | 209 | 1.0 | 3.0 | 0.00 | 0.00 | 0.00 | 80 | 1018.6 |
| 20260905205955 | 77 | 219 | 1.0 | 2.0 | 0.00 | 0.00 | 0.00 | 80 | 1018.7 |
| 20260905204805 | 78 | 202 | 1.0 | 3.0 | 0.00 | 0.00 | 0.00 | 79 | 1018.6 |
| 20260905204309 | 78 | 209 | 1.0 | 4.0 | 0.00 | 0.00 | 0.00 | 79 | 1018.6 |
| 20260905203808 | 78 | 203 | 1.0 | 4.0 | 0.00 | 0.00 | 0.00 | 78 | 1018.7 |
| 20260905203314 | 78 | 223 | 1.0 | 4.0 | 0.00 | 0.00 | 0.00 | 78 | 1018.6 |
| 20260905202805 | 78 | 207 | 1.0 | 4.0 | 0.00 | 0.00 | 0.00 | 78 | 1018.6 |
| 20260905202314 | 78 | 167 | 1.0 | 4.0 | 0.00 | 0.00 | 0.00 | 78 | 1018.7 |
| 20260905201816 | 78 | 176 | 1.0 | 4.0 | 0.00 | 0.00 | 0.00 | 78 | 1018.6 |
| 20260905201326 | 78 | 188 | 1.0 | 4.0 | 0.00 | 0.00 | 0.00 | 77 | 1018.6 |
| 20260905200825 | 78 | 208 | 1.0 | 4.0 | 0.00 | 0.00 | 0.00 | 77 | 1018.5 |
| 20260905200331 | 78 | 190 | 1.0 | 4.0 | 0.00 | 0.00 | 0.00 | 76 | 1018.5 |
| 20260905195838 | 78 | 217 | 1.0 | 4.0 | 0.00 | 0.00 | 0.00 | 76 | 1018.5 |
| 20260905195328 | 78 | 211 | 1.0 | 4.0 | 0.00 | 0.00 | 0.00 | 75 | 1018.5 |
| 20260905194821 | 79 | 207 | 1.0 | 4.0 | 0.00 | 0.00 | 0.00 | 75 | 1018.6 |
| 20260905194313 | 79 | 213 | 1.0 | 3.0 | 0.00 | 0.00 | 0.00 | 74 | 1018.6 |
| 20260905193147 | 80 | 191 | 1.0 | 0.0 | 0.00 | 0.00 | 0.00 | 73 | 1018.5 |
| 20260905192654 | 80 | 194 | 1.0 | 3.0 | 0.00 | 0.00 | 0.00 | 73 | 1018.5 |
| 20260905192149 | 80 | 194 | 0.0 | 3.0 | 0.00 | 0.00 | 0.00 | 73 | 1018.4 |
| 20260905191649 | 81 | 198 | 1.0 | 3.0 | 0.00 | 0.00 | 0.00 | 73 | 1018.4 |
| 20260905191153 | 81 | 209 | 1.0 | 3.0 | 0.00 | 0.00 | 0.00 | 74 | 1018.4 |
| 20260905190648 | 81 | 331 | 0.0 | 2.0 | 0.00 | 0.00 | 0.00 | 75 | 1018.4 |
| 20260905190139 | 81 | 221 | 0.0 | 1.0 | 0.00 | 0.00 | 0.00 | 75 | 1018.3 |
| 20260905185630 | 81 | 221 | 0.0 | 0.0 | 0.00 | 0.00 | 0.00 | 73 | 1018.3 |
| 20260905185137 | 81 | 221 | 1.0 | 3.0 | 0.00 | 0.00 | 0.00 | 73 | 1018.4 |
| 20260905184647 | 81 | 221 | 1.0 | 3.0 | 0.00 | 0.00 | 0.00 | 73 | 1018.1 |
| 20260905184144 | 82 | 217 | 1.0 | 3.0 | 0.00 | 0.00 | 0.00 | 72 | 1018.1 |
| 20260905183631 | 83 | 224 | 1.0 | 5.0 | 0.00 | 0.00 | 0.00 | 70 | 1018.0 |
| 20260905183140 | 83 | 224 | 2.0 | 5.0 | 0.00 | 0.00 | 0.00 | 70 | 1017.9 |
| 20260905182624 | 84 | 299 | 3.0 | 9.0 | 0.00 | 0.00 | 0.00 | 70 | 1017.9 |
| 20260905182122 | 84 | 313 | 4.0 | 9.0 | 0.00 | 0.00 | 0.00 | 66 | 1018.1 |
| 20260905181628 | 84 | 297 | 4.0 | 9.0 | 0.00 | 0.00 | 0.00 | 65 | 1018.0 |
| 20260905181128 | 84 | 313 | 3.0 | 9.0 | 0.00 | 0.00 | 0.00 | 65 | 1018.0 |
| 20260905180631 | 83 | 292 | 1.0 | 7.0 | 0.00 | 0.00 | 0.00 | 64 | 1017.9 |
| 20260905180125 | 83 | 284 | 0.0 | 0.0 | 0.00 | 0.00 | 0.00 | 69 | 1017.8 |
| 20260905175606 | 84 | 284 | 0.0 | 3.0 | 0.00 | 0.00 | 0.00 | 66 | 1017.7 |
| 20260905175050 | 84 | 284 | 0.0 | 3.0 | 0.00 | 0.00 | 0.00 | 67 | 1017.7 |
| 20260905174542 | 84 | 268 | 1.0 | 5.0 | 0.00 | 0.00 | 0.00 | 63 | 1017.6 |
| 20260905174037 | 84 | 283 | 1.0 | 5.0 | 0.00 | 0.00 | 0.00 | 58 | 1017.5 |
| 20260905173532 | 84 | 342 | 2.0 | 9.0 | 0.00 | 0.00 | 0.00 | 59 | 1017.5 |
| 20260905173025 | 84 | 293 | 4.0 | 9.0 | 0.00 | 0.00 | 0.00 | 61 | 1017.5 |
| 20260905171832 | 84 | 320 | 3.0 | 7.0 | 0.00 | 0.00 | 0.00 | 74 | 1017.8 |
| 20260905171320 | 84 | 319 | 4.0 | 13.0 | 0.00 | 0.00 | 0.00 | 73 | 1017.7 |
| 20260905170142 | 85 | 322 | 9.0 | 13.0 | 0.00 | 0.00 | 0.00 | 76 | 1017.6 |
| 20260905165648 | 85 | 289 | 7.0 | 13.0 | 0.00 | 0.00 | 0.00 | 75 | 1017.6 |
| 20260905165135 | 85 | 317 | 7.0 | 11.0 | 0.00 | 0.00 | 0.00 | 71 | 1017.6 |
| 20260905164619 | 85 | 248 | 8.0 | 12.0 | 0.00 | 0.00 | 0.00 | 76 | 1017.6 |
| 20260905164121 | 85 | 292 | 8.0 | 12.0 | 0.00 | 0.00 | 0.00 | 75 | 1017.5 |
| 20260905163628 | 85 | 263 | 7.0 | 12.0 | 0.00 | 0.00 | 0.00 | 76 | 1017.5 |
| 20260905163120 | 86 | 292 | 6.0 | 12.0 | 0.00 | 0.00 | 0.00 | 75 | 1017.5 |
| 20260905162612 | 86 | 312 | 4.0 | 9.0 | 0.00 | 0.00 | 0.00 | 72 | 1017.5 |
| 20260905162114 | 86 | 286 | 2.0 | 8.0 | 0.00 | 0.00 | 0.00 | 70 | 1017.6 |
| 20260905161555 | 87 | 65 | 1.0 | 5.0 | 0.00 | 0.00 | 0.00 | 71 | 1017.6 |
| 20260905161046 | 87 | 57 | 1.0 | 5.0 | 0.00 | 0.00 | 0.00 | 69 | 1017.6 |
| 20260905160540 | 88 | 127 | 2.0 | 7.0 | 0.00 | 0.00 | 0.00 | 68 | 1017.5 |
| 20260905160038 | 88 | 146 | 2.0 | 7.0 | 0.00 | 0.00 | 0.00 | 69 | 1017.5 |
| 20260905155546 | 88 | 133 | 2.0 | 13.0 | 0.00 | 0.00 | 0.00 | 68 | 1017.5 |
| 20260905155056 | 88 | 132 | 5.0 | 13.0 | 0.00 | 0.00 | 0.00 | 66 | 1017.6 |
| 20260905153917 | 86 | 289 | 9.0 | 13.0 | 0.00 | 0.00 | 0.00 | 71 | 1017.5 |
| 20260905153427 | 86 | 313 | 8.0 | 12.0 | 0.00 | 0.00 | 0.00 | 65 | 1017.5 |
| 20260905152928 | 86 | 296 | 4.0 | 11.0 | 0.00 | 0.00 | 0.00 | 73 | 1017.6 |
| 20260905152434 | 86 | 28 | 2.0 | 3.0 | 0.00 | 0.00 | 0.00 | 76 | 1017.6 |
| 20260905151942 | 86 | 75 | 2.0 | 3.0 | 0.00 | 0.00 | 0.00 | 75 | 1017.6 |
| 20260905151452 | 86 | 75 | 3.0 | 7.0 | 0.00 | 0.00 | 0.00 | 73 | 1017.7 |
| 20260905145654 | 88 | 91 | 1.0 | 6.0 | 0.00 | 0.00 | 0.00 | 71 | 1017.7 |
| 20260905145151 | 88 | 103 | 1.0 | 6.0 | 0.00 | 0.00 | 0.00 | 71 | 1017.8 |
| 20260905144637 | 88 | 99 | 0.0 | 4.0 | 0.00 | 0.00 | 0.00 | 71 | 1017.7 |
| 20260905143446 | 87 | 101 | 1.0 | 5.0 | 0.00 | 0.00 | 0.00 | 71 | 1017.9 |
| 20260905142932 | 86 | 112 | 1.0 | 6.0 | 0.00 | 0.00 | 0.00 | 73 | 1017.9 |
| 20260905142441 | 86 | 38 | 3.0 | 6.0 | 0.00 | 0.00 | 0.00 | 71 | 1017.9 |
| 20260905141927 | 86 | 38 | 4.0 | 6.0 | 0.00 | 0.00 | 0.00 | 71 | 1018.0 |
| 20260905141435 | 86 | 45 | 3.0 | 6.0 | 0.00 | 0.00 | 0.00 | 71 | 1018.0 |
| 20260905140932 | 86 | 19 | 3.0 | 4.0 | 0.00 | 0.00 | 0.00 | 69 | 1018.0 |
| 20260905140416 | 86 | 18 | 2.0 | 4.0 | 0.00 | 0.00 | 0.00 | 68 | 1018.0 |
| 20260905135917 | 86 | 69 | 2.0 | 4.0 | 0.00 | 0.00 | 0.00 | 71 | 1018.0 |
| 20260905135412 | 87 | 81 | 2.0 | 8.0 | 0.00 | 0.00 | 0.00 | 72 | 1017.9 |
| 20260905134917 | 87 | 75 | 3.0 | 8.0 | 0.00 | 0.00 | 0.00 | 71 | 1018.0 |
| 20260905134401 | 87 | 86 | 2.0 | 8.0 | 0.00 | 0.00 | 0.00 | 70 | 1017.9 |
| 20260905133247 | 87 | 126 | 2.0 | 6.0 | 0.00 | 0.00 | 0.00 | 68 | 1017.9 |
| 20260905132749 | 86 | 100 | 1.0 | 7.0 | 0.00 | 0.00 | 0.00 | 68 | 1017.9 |
| 20260905131610 | 87 | 74 | 2.0 | 7.0 | 0.00 | 0.00 | 0.00 | 70 | 1018.3 |
| 20260905130446 | 87 | 92 | 2.0 | 5.0 | 0.00 | 0.00 | 0.00 | 69 | 1018.4 |
| 20260905125940 | 87 | 67 | 2.0 | 5.0 | 0.00 | 0.00 | 0.00 | 71 | 1018.4 |
| 20260905125422 | 86 | 79 | 2.0 | 5.0 | 0.00 | 0.00 | 0.00 | 71 | 1018.5 |
| 20260905124912 | 86 | 90 | 1.0 | 5.0 | 0.00 | 0.00 | 0.00 | 75 | 1018.6 |
| 20260905124419 | 86 | 54 | 1.0 | 3.0 | 0.00 | 0.00 | 0.00 | 74 | 1018.6 |
| 20260905123902 | 86 | 53 | 2.0 | 3.0 | 0.00 | 0.00 | 0.00 | 72 | 1018.6 |
| 20260905122723 | 85 | 11 | 1.0 | 8.0 | 0.00 | 0.00 | 0.00 | 74 | 1018.6 |
| 20260905122232 | 86 | 17 | 3.0 | 10.0 | 0.00 | 0.00 | 0.00 | 75 | 1018.6 |
| 20260905121046 | 85 | 136 | 5.0 | 11.0 | 0.00 | 0.00 | 0.00 | 80 | 1018.7 |
| 20260905120547 | 85 | 126 | 6.0 | 11.0 | 0.00 | 0.00 | 0.00 | 80 | 1018.7 |
| 20260905120037 | 85 | 130 | 6.0 | 11.0 | 0.00 | 0.00 | 0.00 | 81 | 1018.6 |
| 20260905115534 | 86 | 132 | 6.0 | 11.0 | 0.00 | 0.00 | 0.00 | 81 | 1018.6 |
| 20260905114415 | 85 | 141 | 7.0 | 10.0 | 0.00 | 0.00 | 0.00 | 80 | 1018.6 |
| 20260905113906 | 86 | 138 | 5.0 | 10.0 | 0.00 | 0.00 | 0.00 | 79 | 1018.6 |
| 20260905113415 | 86 | 136 | 5.0 | 10.0 | 0.00 | 0.00 | 0.00 | 78 | 1018.6 |
| 20260905112918 | 86 | 147 | 3.0 | 9.0 | 0.00 | 0.00 | 0.00 | 77 | 1018.6 |
| 20260905111740 | 87 | 128 | 1.0 | 6.0 | 0.00 | 0.00 | 0.00 | 79 | 1018.6 |
| 20260905111225 | 87 | 68 | 1.0 | 6.0 | 0.00 | 0.00 | 0.00 | 79 | 1018.8 |
| 20260905110730 | 87 | 95 | 1.0 | 6.0 | 0.00 | 0.00 | 0.00 | 80 | 1018.8 |
| 20260905110217 | 87 | 124 | 0.0 | 3.0 | 0.00 | 0.00 | 0.00 | 80 | 1018.7 |
| 20260905105709 | 86 | 80 | 0.0 | 3.0 | 0.00 | 0.00 | 0.00 | 82 | 1018.8 |
| 20260905105201 | 85 | 100 | 1.0 | 5.0 | 0.00 | 0.00 | 0.00 | 82 | 1018.8 |
| 20260905104642 | 84 | 126 | 2.0 | 5.0 | 0.00 | 0.00 | 0.00 | 82 | 1018.8 |
| 20260905104138 | 84 | 82 | 2.0 | 5.0 | 0.00 | 0.00 | 0.00 | 82 | 1018.8 |
| 20260905103624 | 84 | 84 | 1.0 | 5.0 | 0.00 | 0.00 | 0.00 | 82 | 1018.8 |
| 20260905103127 | 84 | 85 | 2.0 | 5.0 | 0.00 | 0.00 | 0.00 | 83 | 1018.9 |
| 20260905102629 | 84 | 97 | 2.0 | 5.0 | 0.00 | 0.00 | 0.00 | 83 | 1018.9 |
| 20260905101513 | 83 | 5 | 3.0 | 5.0 | 0.00 | 0.00 | 0.00 | 84 | 1018.9 |
| 20260905100959 | 83 | 0 | 4.0 | 9.0 | 0.00 | 0.00 | 0.00 | 85 | 1019.0 |
| 20260905100448 | 83 | 330 | 6.0 | 9.0 | 0.00 | 0.00 | 0.00 | 84 | 1018.9 |
| 20260905095311 | 83 | 322 | 8.0 | 10.0 | 0.00 | 0.00 | 0.00 | 84 | 1019.0 |
| 20260905094814 | 83 | 318 | 8.0 | 10.0 | 0.00 | 0.00 | 0.00 | 84 | 1019.2 |
| 20260905094313 | 83 | 315 | 8.0 | 10.0 | 0.00 | 0.00 | 0.00 | 83 | 1019.1 |
| 20260905093203 | 83 | 309 | 8.0 | 11.0 | 0.00 | 0.00 | 0.00 | 83 | 1019.0 |
| 20260905092658 | 83 | 321 | 8.0 | 11.0 | 0.00 | 0.00 | 0.00 | 83 | 1019.1 |
| 20260905092148 | 83 | 315 | 8.0 | 11.0 | 0.00 | 0.00 | 0.00 | 84 | 1019.1 |
| 20260905091639 | 83 | 313 | 6.0 | 10.0 | 0.00 | 0.00 | 0.00 | 83 | 1019.1 |
| 20260905091141 | 84 | 319 | 4.0 | 9.0 | 0.00 | 0.00 | 0.00 | 84 | 1019.1 |
| 20260905090631 | 83 | 331 | 4.0 | 6.0 | 0.00 | 0.00 | 0.00 | 84 | 1018.9 |
| 20260905090140 | 83 | 325 | 4.0 | 6.0 | 0.00 | 0.00 | 0.00 | 84 | 1018.8 |
| 20260905085636 | 83 | 326 | 4.0 | 6.0 | 0.00 | 0.00 | 0.00 | 84 | 1018.8 |
| 20260905085143 | 84 | 318 | 4.0 | 6.0 | 0.00 | 0.00 | 0.00 | 84 | 1018.8 |
| 20260905084044 | 84 | 324 | 3.0 | 6.0 | 0.00 | 0.00 | 0.00 | 83 | 1018.8 |
| 20260905083538 | 84 | 319 | 3.0 | 6.0 | 0.00 | 0.00 | 0.00 | 84 | 1018.8 |
| 20260905083039 | 84 | 325 | 2.0 | 4.0 | 0.00 | 0.00 | 0.00 | 84 | 1018.6 |
| 20260905082540 | 84 | 327 | 2.0 | 4.0 | 0.00 | 0.00 | 0.00 | 83 | 1018.5 |
| 20260905082036 | 84 | 325 | 2.0 | 4.0 | 0.00 | 0.00 | 0.00 | 83 | 1018.5 |
| 20260905081518 | 84 | 329 | 2.0 | 3.0 | 0.00 | 0.00 | 0.00 | 84 | 1018.4 |
| 20260905081001 | 84 | 329 | 2.0 | 3.0 | 0.00 | 0.00 | 0.00 | 84 | 1018.4 |
| 20260905080458 | 83 | 329 | 2.0 | 3.0 | 0.00 | 0.00 | 0.00 | 84 | 1018.3 |
| 20260905080006 | 83 | 336 | 2.0 | 3.0 | 0.00 | 0.00 | 0.00 | 84 | 1018.1 |
| 20260905075515 | 83 | 336 | 2.0 | 4.0 | 0.00 | 0.00 | 0.00 | 84 | 1018.2 |
| 20260905075005 | 83 | 335 | 2.0 | 4.0 | 0.00 | 0.00 | 0.00 | 84 | 1018.2 |
| 20260905074502 | 83 | 335 | 2.0 | 4.0 | 0.00 | 0.00 | 0.00 | 84 | 1018.1 |
| 20260905074004 | 83 | 355 | 2.0 | 4.0 | 0.00 | 0.00 | 0.00 | 84 | 1018.1 |